CW4957 Weather Reports


time (UTC)temp
C
wind
direction
speed
KPH
gust
KPH
rain 1hr
cm
rain 24hr
cm
rain mn
cm
humidity
%
barometer
mb
20260510171259 17 360 0.0 4.8 0.00 0.46 0.00 80 1010.4
20260510170819 17 360 1.6 4.8 0.00 0.46 0.00 82 1010.6
20260510170310 17 360 1.6 3.2 0.00 0.46 0.00 82 1010.6
20260510165757 17 360 1.6 3.2 0.00 0.61 0.00 82 1010.6
20260510165316 16 360 0.0 6.4 0.00 0.61 0.00 81 1011.0
20260510164809 16 360 3.2 6.4 0.00 0.61 0.00 81 1011.0
20260510164307 16 360 0.0 1.6 0.00 0.61 0.00 81 1011.0
20260510163804 17 360 0.0 1.6 0.00 0.61 0.00 82 1011.0
20260510163302 17 360 0.0 3.2 0.00 0.61 0.00 81 1011.0
20260510162820 17 360 0.0 3.2 0.00 0.61 0.00 81 1011.0
20260510162320 17 360 0.0 6.4 0.00 0.61 0.00 81 1010.8
20260510161836 17 360 1.6 6.4 0.00 0.61 0.00 81 1010.8
20260510161316 17 360 0.0 4.8 0.00 0.61 0.00 81 1010.8
20260510160812 17 360 3.2 4.8 0.00 0.61 0.00 81 1011.0
20260510160318 17 360 1.6 8.0 0.00 0.61 0.00 83 1011.0
20260510155757 16 360 1.6 8.0 0.00 0.69 0.00 85 1011.0
20260510155257 16 360 3.2 9.7 0.00 0.69 0.00 86 1011.0
20260510154757 16 360 3.2 8.0 0.00 0.69 0.00 87 1011.0
20260510154316 16 360 3.2 8.0 0.00 0.69 0.00 87 1011.0
20260510153756 15 360 3.2 8.0 0.00 0.69 0.00 88 1011.2
20260510153334 15 360 1.6 6.4 0.00 0.69 0.00 89 1011.2
20260510152810 15 360 1.6 12.9 0.00 0.69 0.00 90 1011.2
20260510152309 15 360 3.2 12.9 0.00 0.69 0.00 92 1011.2
20260510151800 15 360 3.2 8.0 0.00 0.69 0.00 93 1011.2
20260510151257 14 360 1.6 6.4 0.00 0.69 0.00 94 1011.2
20260510150757 14 360 0.0 6.4 0.00 0.69 0.00 94 1011.1
20260510150310 13 360 3.2 4.8 0.00 0.69 0.00 95 1011.1
20260510145805 13 360 0.0 6.4 0.00 0.74 0.00 95 1011.1
20260510145331 13 360 1.6 4.8 0.00 0.74 0.00 95 1011.1
20260510144812 13 360 1.6 3.2 0.00 0.74 0.00 96 1011.1
20260510144313 13 360 0.0 4.8 0.00 0.74 0.00 96 1011.1
20260510143809 13 360 1.6 4.8 0.00 0.74 0.00 97 1011.3
20260510143308 13 261 1.6 4.8 0.00 0.74 0.00 97 1011.3
20260510142821 12 306 1.6 4.8 0.00 0.74 0.00 96 1011.3
20260510142300 12 252 1.6 6.4 0.00 0.74 0.00 97 1011.5
20260510141817 12 268 3.2 6.4 0.00 0.74 0.00 97 1011.5
20260510141257 12 271 1.6 3.2 0.00 0.74 0.00 97 1011.5
20260510140813 12 360 0.0 3.2 0.00 0.74 0.00 97 1011.4
20260510140305 12 360 1.6 3.2 0.00 0.74 0.00 97 1011.4
20260510135801 12 263 1.6 3.2 0.00 0.76 0.00 97 1011.4
20260510135259 12 263 1.6 4.8 0.00 0.76 0.00 97 1011.5
20260510134759 12 264 1.6 4.8 0.00 0.76 0.00 97 1011.5
20260510134302 12 264 1.6 4.8 0.00 0.76 0.00 97 1011.5
20260510133804 12 43 1.6 4.8 0.00 0.76 0.00 97 1011.4
20260510133259 12 360 0.0 4.8 0.00 0.76 0.00 97 1011.4
20260510132822 12 277 1.6 4.8 0.00 0.76 0.00 97 1011.4
20260510132318 12 360 0.0 1.6 0.00 0.76 0.00 97 1011.5
20260510131757 11 277 0.0 1.6 0.00 0.76 0.00 97 1011.5
20260510131316 11 277 0.0 1.6 0.00 0.76 0.00 97 1011.5
20260510130812 11 277 0.0 3.2 0.00 0.76 0.00 97 1011.5
20260510130305 11 277 1.6 3.2 0.00 0.76 0.00 97 1011.5
20260510125803 11 271 0.0 3.2 0.00 0.76 0.00 97 1011.5
20260510125323 11 271 1.6 3.2 0.00 0.76 0.00 97 1011.3
20260510124816 11 269 0.0 3.2 0.00 0.76 0.00 97 1011.3
20260510124331 11 302 1.6 4.8 0.00 0.76 0.00 97 1011.3
20260510123834 11 285 1.6 4.8 0.00 0.76 0.00 97 1011.0
20260510123315 11 360 0.0 4.8 0.00 0.76 0.00 97 1011.0
20260510122813 11 297 1.6 4.8 0.00 0.76 0.00 97 1011.0
20260510122259 11 296 0.0 1.6 0.00 0.76 0.00 97 1011.3
20260510121815 11 296 0.0 4.8 0.00 0.76 0.00 97 1011.3
20260510121310 11 275 0.0 1.6 0.00 0.76 0.00 97 1011.3
20260510120804 11 273 0.0 1.6 0.00 0.76 0.00 97 1011.3
20260510120311 11 360 0.0 1.6 0.00 0.76 0.00 97 1011.3
20260510115812 11 360 0.0 1.6 0.00 0.86 0.00 97 1011.3
20260510115311 11 277 0.0 0.0 0.00 0.86 0.00 97 1011.3
20260510114806 11 277 0.0 0.0 0.00 0.86 0.00 97 1011.3
20260510114300 11 277 0.0 4.8 0.00 0.86 0.00 97 1011.3
20260510113756 11 360 1.6 4.8 0.00 0.86 0.00 97 1011.3
20260510113335 11 273 0.0 1.6 0.00 0.86 0.00 97 1011.3
20260510112812 11 360 0.0 3.2 0.00 0.86 0.00 97 1011.3
20260510112312 11 360 1.6 3.2 0.00 0.86 0.00 97 1011.0
20260510111808 11 271 0.0 4.8 0.00 0.86 0.00 97 1011.0
20260510111312 11 360 1.6 4.8 0.00 0.86 0.00 97 1011.0
20260510110802 11 44 0.0 3.2 0.00 0.86 0.00 97 1011.0
20260510110312 11 44 1.6 3.2 0.00 0.86 0.00 97 1011.0
20260510105814 11 55 0.0 3.2 0.00 0.94 0.00 97 1011.0
20260510105310 11 48 0.0 3.2 0.00 0.94 0.00 97 1010.7
20260510104814 11 32 0.0 1.6 0.00 0.94 0.00 97 1010.7
20260510104333 11 33 0.0 4.8 0.00 0.94 0.00 97 1010.7
20260510103815 11 33 0.0 4.8 0.00 0.94 0.00 97 1010.4
20260510103316 11 31 0.0 3.2 0.00 0.94 0.00 97 1010.4
20260510102814 10 31 0.0 3.2 0.00 0.94 0.00 97 1010.4
20260510102313 10 34 0.0 3.2 0.00 0.94 0.00 97 1010.4
20260510101814 10 34 1.6 3.2 0.00 0.94 0.00 97 1010.4
20260510101312 10 33 1.6 3.2 0.00 0.94 0.00 97 1010.4
20260510100807 10 57 0.0 3.2 0.00 0.94 0.00 97 1010.0
20260510100259 10 57 1.6 3.2 0.00 0.94 0.00 97 1010.0
20260510095836 10 57 0.0 1.6 0.00 0.94 0.00 97 1010.0
20260510095315 10 57 0.0 3.2 0.00 0.94 0.00 97 1009.9
20260510094813 10 57 1.6 3.2 0.00 0.94 0.00 97 1009.9
20260510094315 10 56 0.0 3.2 0.00 0.94 0.00 96 1009.9
20260510093812 10 57 0.0 0.0 0.00 0.94 0.00 96 1009.6
20260510093314 10 56 0.0 1.6 0.00 0.94 0.00 96 1009.6
20260510092812 10 56 0.0 3.2 0.00 0.94 0.00 96 1009.6
20260510092309 10 57 0.0 4.8 0.00 0.94 0.00 96 1009.4
20260510091802 10 40 0.0 4.8 0.00 0.94 0.00 96 1009.4
20260510091301 10 113 1.6 3.2 0.00 0.94 0.00 96 1009.4
20260510090819 10 113 0.0 4.8 0.00 0.94 0.00 96 1009.5
20260510090312 10 113 1.6 4.8 0.00 0.94 0.00 96 1009.5
20260510085810 10 96 1.6 3.2 0.00 0.94 0.00 96 1009.5
20260510085311 10 96 1.6 4.8 0.00 0.94 0.00 96 1009.9
20260510084813 10 96 1.6 4.8 0.00 0.94 0.00 96 1009.9
20260510084313 10 88 1.6 3.2 0.00 0.94 0.00 96 1009.9
20260510083754 10 88 1.6 3.2 0.00 0.94 0.00 96 1010.2
20260510083258 10 88 0.0 1.6 0.00 0.94 0.00 96 1010.2
20260510082759 10 88 0.0 1.6 0.00 0.94 0.00 96 1010.2
20260510082316 10 88 0.0 1.6 0.00 0.94 0.00 96 1010.2
20260510081814 10 88 0.0 3.2 0.00 0.94 0.00 96 1010.2
20260510081312 10 88 0.0 3.2 0.00 0.94 0.00 96 1010.2
20260510080813 10 88 0.0 3.2 0.00 0.94 0.00 96 1010.2
20260510080302 10 88 0.0 3.2 0.00 0.94 0.00 96 1010.2
20260510075803 10 88 0.0 3.2 0.00 0.94 0.00 96 1010.2
20260510075300 10 87 0.0 1.6 0.00 0.94 0.00 96 1010.1
20260510074802 10 87 0.0 0.0 0.00 0.94 0.00 96 1010.1
20260510074303 10 87 0.0 0.0 0.00 0.94 0.00 96 1010.1
20260510073802 10 87 0.0 0.0 0.00 0.94 0.00 96 1009.9
20260510073258 10 87 0.0 0.0 0.00 0.94 0.00 96 1009.9
20260510072759 10 87 0.0 0.0 0.00 0.94 0.00 96 1009.9
20260510072313 10 87 0.0 0.0 0.00 0.94 0.00 96 1009.9
20260510071812 10 87 0.0 0.0 0.00 0.94 0.00 96 1009.9
20260510071256 10 87 0.0 0.0 0.00 0.94 0.00 96 1009.9
20260510070815 10 87 0.0 0.0 0.00 0.94 0.00 96 1009.6
20260510070306 10 88 0.0 0.0 0.00 0.94 0.00 96 1009.6
20260510065805 10 88 0.0 0.0 0.00 0.94 0.00 96 1009.6
20260510065306 10 88 0.0 0.0 0.00 0.94 0.00 96 1009.6
20260510064800 10 88 0.0 0.0 0.00 0.94 0.00 96 1009.6
20260510064300 10 88 0.0 0.0 0.00 0.94 0.00 96 1009.6
20260510063837 10 88 0.0 0.0 0.00 0.94 0.00 96 1009.6
20260510063330 10 88 0.0 0.0 0.00 0.94 0.00 96 1009.6
20260510062805 10 89 0.0 0.0 0.00 0.94 0.00 96 1009.6
20260510062322 10 90 0.0 0.0 0.00 0.94 0.00 96 1009.6
20260510061803 10 89 0.0 0.0 0.00 0.94 0.00 96 1009.6
20260510061303 10 90 0.0 1.6 0.00 0.94 0.00 96 1009.6
20260510060800 10 90 0.0 1.6 0.00 0.94 0.00 96 1009.9
20260510060334 10 90 0.0 1.6 0.00 0.94 0.00 96 1009.9
20260510055756 10 89 0.0 3.2 0.00 0.94 0.00 96 1009.9
20260510055300 10 89 0.0 3.2 0.00 0.94 0.00 96 1009.9
20260510054804 10 89 0.0 0.0 0.00 0.94 0.00 96 1009.9
20260510054259 10 88 0.0 0.0 0.00 0.94 0.00 96 1009.9
20260510053804 10 89 0.0 0.0 0.00 0.94 0.00 96 1009.9
20260510053321 10 89 0.0 0.0 0.00 0.94 0.00 96 1009.9
20260510052800 10 89 0.0 0.0 0.00 0.94 0.00 96 1009.9
20260510052258 10 90 0.0 0.0 0.00 0.94 0.00 96 1009.9
20260510051803 10 90 0.0 0.0 0.00 0.94 0.00 96 1009.9
20260510051303 10 90 0.0 0.0 0.00 0.94 0.00 96 1009.9
20260510050805 10 90 0.0 0.0 0.00 0.94 0.00 96 1009.8
20260510050258 10 90 0.0 0.0 0.00 0.94 0.00 96 1009.8
20260510045814 10 90 0.0 0.0 0.00 0.94 0.00 96 1009.8
20260510045310 10 90 0.0 0.0 0.00 0.94 0.00 96 1010.0
20260510044802 10 90 0.0 0.0 0.00 0.94 0.00 96 1010.0
20260510044305 10 90 0.0 0.0 0.00 0.94 0.00 96 1010.0
20260510043806 10 90 0.0 0.0 0.00 0.94 0.00 96 1010.1
20260510043313 10 91 0.0 0.0 0.00 0.94 0.00 96 1010.1
20260510042812 10 90 0.0 0.0 0.00 0.94 0.00 96 1010.1
20260510042326 10 90 0.0 0.0 0.00 0.94 0.00 96 1010.0
20260510041824 10 90 0.0 0.0 0.00 0.94 0.00 96 1010.0
20260510041322 10 90 0.0 0.0 0.00 0.94 0.00 96 1010.0
20260510040802 10 90 0.0 0.0 0.00 0.94 0.00 96 1010.2
20260510040315 10 91 0.0 1.6 0.00 0.94 0.00 96 1010.2
20260510035815 10 91 0.0 0.0 0.00 0.94 0.94 96 1010.2
20260510035312 10 90 0.0 0.0 0.00 0.94 0.94 96 1010.2
20260510034809 10 91 0.0 1.6 0.00 0.94 0.94 96 1010.2
20260510034307 10 91 0.0 1.6 0.00 0.94 0.94 96 1010.2
20260510033812 10 90 0.0 1.6 0.00 0.94 0.94 96 1010.0
20260510033314 10 89 0.0 0.0 0.00 0.94 0.94 96 1010.0
20260510032811 10 91 0.0 0.0 0.00 0.94 0.94 96 1010.0
20260510032312 10 90 0.0 0.0 0.00 0.94 0.94 96 1010.0
20260510031809 10 90 0.0 0.0 0.00 0.94 0.94 96 1010.0
20260510031305 10 90 0.0 0.0 0.00 0.94 0.94 96 1010.0
20260510030804 10 88 0.0 0.0 0.00 0.94 0.94 96 1010.3
20260510030330 10 90 0.0 0.0 0.00 0.94 0.94 96 1010.3
20260510025808 10 90 0.0 0.0 0.00 0.94 0.94 96 1010.3
20260510025313 10 90 0.0 0.0 0.00 0.94 0.94 96 1010.0
20260510024810 10 90 0.0 0.0 0.00 0.94 0.94 96 1010.0
20260510024309 10 90 0.0 0.0 0.00 0.94 0.94 96 1010.0
20260510023801 10 91 0.0 0.0 0.00 0.94 0.94 96 1010.0
20260510023303 10 89 0.0 0.0 0.00 0.94 0.94 96 1010.0
20260510022802 10 90 0.0 0.0 0.00 0.94 0.94 96 1010.0
20260510022306 10 90 0.0 0.0 0.00 0.94 0.94 96 1010.4
20260510021759 10 90 0.0 0.0 0.00 0.94 0.94 96 1010.4
20260510021256 10 89 0.0 0.0 0.00 0.94 0.94 96 1010.4
20260510020828 10 90 0.0 0.0 0.00 0.94 0.94 96 1010.5
20260510020300 10 91 0.0 0.0 0.00 0.94 0.94 96 1010.5
20260510015759 10 90 0.0 0.0 0.00 0.94 0.94 96 1010.5
20260510015318 10 89 0.0 0.0 0.00 0.94 0.94 96 1010.9
20260510014800 9 88 0.0 0.0 0.00 0.94 0.94 96 1010.9
20260510014258 9 89 0.0 0.0 0.00 0.94 0.94 95 1010.9
20260510013757 9 89 0.0 0.0 0.00 0.94 0.94 95 1010.5
20260510013314 9 90 0.0 0.0 0.00 0.94 0.94 95 1010.5
20260510012812 9 88 0.0 0.0 0.00 0.94 0.94 95 1010.5
20260510012259 9 88 0.0 0.0 0.00 0.94 0.94 95 1010.5
20260510011814 9 90 0.0 0.0 0.00 0.94 0.94 95 1010.5
20260510011311 9 88 0.0 0.0 0.00 0.94 0.94 95 1010.5
20260510010810 9 90 0.0 0.0 0.00 0.94 0.94 95 1010.2
20260510010306 9 88 0.0 0.0 0.00 0.94 0.94 95 1010.2
20260510005821 9 88 0.0 0.0 0.00 0.94 0.94 95 1010.2
20260510005313 9 88 0.0 0.0 0.00 0.94 0.94 95 1010.0
20260510004811 9 88 0.0 0.0 0.00 0.94 0.94 95 1010.0
20260510004318 9 88 0.0 0.0 0.00 0.94 0.94 95 1010.0
20260510003800 9 88 0.0 0.0 0.00 0.94 0.94 95 1009.9
20260510003300 9 88 0.0 0.0 0.00 0.94 0.94 95 1009.9
20260510002813 9 88 0.0 1.6 0.00 0.94 0.94 95 1009.9
20260510002311 9 88 0.0 3.2 0.00 0.94 0.94 95 1009.5
20260510001832 9 88 0.0 4.8 0.00 0.94 0.94 95 1009.5
20260510001312 9 88 0.0 9.7 0.00 0.94 0.94 95 1009.5
20260510000755 9 96 3.2 9.7 0.00 0.94 0.94 95 1009.8
20260510000313 9 139 3.2 6.4 0.00 0.94 0.94 95 1009.8
20260509235805 9 139 0.0 0.0 0.00 0.94 0.94 95 1009.8
20260509235258 9 139 0.0 0.0 0.00 0.94 0.94 95 1010.0
20260509234756 9 139 0.0 0.0 0.00 0.94 0.94 95 1010.0
20260509234304 9 138 0.0 0.0 0.00 0.94 0.94 95 1010.0
20260509233759 9 138 0.0 0.0 0.00 0.94 0.94 95 1009.9
20260509233312 9 138 0.0 0.0 0.00 0.94 0.94 95 1009.9
20260509232811 9 139 0.0 0.0 0.00 0.94 0.94 95 1009.9
20260509232329 9 139 0.0 0.0 0.00 0.94 0.94 95 1009.8
20260509231804 9 140 0.0 0.0 0.00 0.94 0.94 95 1009.8
20260509231322 9 139 0.0 0.0 0.00 0.94 0.94 95 1009.8
20260509230801 9 139 0.0 0.0 0.00 0.94 0.94 95 1009.9
20260509230300 9 139 0.0 0.0 0.00 0.94 0.94 95 1009.9
20260509225801 9 139 0.0 0.0 0.00 0.94 0.94 95 1009.9
20260509225305 9 140 0.0 0.0 0.00 0.94 0.94 95 1009.8
20260509224759 9 140 0.0 0.0 0.00 0.94 0.94 95 1009.8
20260509224313 9 139 0.0 0.0 0.00 0.94 0.94 95 1009.8
20260509223832 9 140 0.0 0.0 0.00 0.94 0.94 95 1009.8
20260509223307 9 140 0.0 0.0 0.00 0.94 0.94 95 1009.8
20260509222820 9 139 0.0 0.0 0.00 0.94 0.94 95 1009.8
20260509222307 9 140 0.0 0.0 0.00 0.94 0.94 95 1009.7
20260509221801 9 139 0.0 0.0 0.00 0.94 0.94 95 1009.7
20260509221258 9 139 0.0 0.0 0.00 0.94 0.94 95 1009.7
20260509220807 9 140 0.0 0.0 0.00 0.94 0.94 95 1009.6
20260509220300 9 140 0.0 0.0 0.03 0.94 0.94 95 1009.6
20260509215800 9 139 0.0 0.0 0.03 0.94 0.94 95 1009.6
20260509215258 9 140 0.0 0.0 0.03 0.94 0.94 95 1009.9
20260509214759 9 140 0.0 0.0 0.03 0.94 0.94 95 1009.9
20260509214304 9 140 0.0 0.0 0.03 0.94 0.94 95 1009.9
20260509213757 9 140 0.0 0.0 0.05 0.94 0.94 95 1009.9
20260509213259 9 139 0.0 0.0 0.05 0.94 0.94 95 1009.9
20260509212757 9 138 0.0 0.0 0.05 0.94 0.94 95 1009.9
20260509212318 9 138 0.0 0.0 0.05 0.94 0.94 95 1010.2
20260509211815 9 138 0.0 0.0 0.05 0.94 0.94 95 1010.2
20260509211311 9 138 0.0 0.0 0.08 0.94 0.94 95 1010.2
20260509210808 9 138 0.0 0.0 0.08 0.94 0.94 95 1010.5
20260509210258 9 138 0.0 0.0 0.05 0.91 0.91 95 1010.5
20260509205808 9 138 0.0 0.0 0.05 0.91 0.91 95 1010.5
20260509205307 9 138 0.0 0.0 0.08 0.91 0.91 95 1010.6
20260509204822 9 138 0.0 0.0 0.08 0.91 0.91 95 1010.6
20260509204317 8 138 0.0 0.0 0.05 0.89 0.89 95 1010.6
20260509203813 8 138 0.0 0.0 0.05 0.89 0.89 95 1010.8
20260509203312 8 138 0.0 0.0 0.08 0.89 0.89 95 1010.8
20260509202809 8 138 0.0 0.0 0.08 0.89 0.89 95 1010.8
20260509202307 8 138 0.0 0.0 0.10 0.89 0.89 95 1011.0
20260509201803 8 138 0.0 0.0 0.10 0.89 0.89 95 1011.0
20260509201259 8 138 0.0 0.0 0.10 0.86 0.86 95 1011.0
20260509200758 8 138 0.0 0.0 0.13 0.86 0.86 95 1011.0
20260509200308 8 138 0.0 0.0 0.13 0.86 0.86 95 1011.0
20260509195811 8 138 0.0 0.0 0.15 0.86 0.86 95 1011.0
20260509195309 8 138 0.0 0.0 0.13 0.84 0.84 95 1010.8
20260509194811 8 138 0.0 0.0 0.15 0.84 0.84 95 1010.8
20260509194309 8 138 0.0 0.0 0.15 0.84 0.84 95 1010.8
20260509193811 8 138 0.0 0.0 0.13 0.81 0.81 95 1011.0
20260509193310 8 138 0.0 0.0 0.15 0.81 0.81 95 1011.0
20260509192809 8 138 0.0 0.0 0.15 0.81 0.81 95 1011.0
20260509192306 8 138 0.0 0.0 0.13 0.79 0.79 95 1011.1
20260509191801 8 138 0.0 0.0 0.10 0.76 0.76 95 1011.1
20260509191313 8 138 0.0 0.0 0.10 0.76 0.76 95 1011.1
20260509190815 8 138 0.0 0.0 0.10 0.74 0.74 95 1011.1
20260509190311 8 138 0.0 0.0 0.10 0.74 0.74 95 1011.1
20260509185830 8 138 0.0 0.0 0.10 0.71 0.71 95 1011.1
20260509185326 8 138 0.0 0.0 0.10 0.71 0.71 95 1011.3
20260509184802 8 138 0.0 0.0 0.08 0.69 0.69 95 1011.3
20260509184257 8 138 0.0 0.0 0.10 0.69 0.69 95 1011.3
20260509183757 8 138 0.0 0.0 0.10 0.69 0.69 95 1011.3
20260509183256 8 138 0.0 0.0 0.10 0.66 0.66 95 1011.3
20260509182756 8 138 0.0 0.0 0.10 0.66 0.66 95 1011.3
20260509182311 8 138 0.0 0.0 0.13 0.66 0.66 95 1011.5
20260509181805 8 138 0.0 0.0 0.13 0.66 0.66 95 1011.5
20260509181307 8 138 0.0 0.0 0.15 0.66 0.66 95 1011.5
20260509180822 8 138 0.0 0.0 0.13 0.64 0.64 95 1011.6
20260509180314 8 138 0.0 0.0 0.10 0.61 0.61 95 1011.6
20260509175811 8 138 0.0 0.0 0.13 0.61 0.61 95 1011.6
20260509175254 8 138 0.0 0.0 0.13 0.61 0.61 95 1011.7
20260509174814 8 138 0.0 0.0 0.13 0.58 0.58 94 1011.7
20260509174329 8 138 0.0 0.0 0.13 0.58 0.58 95 1011.7
20260509173802 8 138 0.0 0.0 0.13 0.58 0.58 95 1012.0
20260509173258 8 138 0.0 0.0 0.13 0.56 0.56 95 1012.0
20260509172801 7 138 0.0 0.0 0.13 0.56 0.56 95 1012.0
20260509172306 7 138 0.0 0.0 0.13 0.53 0.53 95 1012.2
20260509171807 7 138 0.0 0.0 0.13 0.53 0.53 95 1012.2